カタログに戻る

STARLINK-38214

運用中通信SSO
NORAD 100103·PAYLOAD·🇺🇸 United States

打ち上げ Jul 21, 2026 から Vandenberg Space Force Base

Loading…

次のパス (今後24時間)

TLE

最新Source: Space-Track

元期: Sep 14, 2026, 07:11 UTC

1 A0103U 26166C   26257.29938385 -.00000380  00000-0 -16815-5 0  9993
2 A0103  97.2824 275.2844 0000892  98.3468 261.7898 15.75173075  8625

AllMySatでSTARLINK-38214をリアルタイム追跡

Download on the App Store